Location: Appleton
(44.2618°N, 88.4157°W)
Time: 10:56:07
(UTC+00:00)

Altair - Visible Passes

Search period start: 01 March 2021 00:00
Search period end: 11 March 2021 00:00
Orbit: 1501 x 1682 km, 47.2° (Epoch: 28 February)

Date Brightness Start Highest point End Pass type
(mag) Time Alt. Az. Time Alt. Az. Time Alt. Az.
01 Mar 7.3 02:02:13 10° WSW 02:11:29 84° SSE 02:15:00 45° ENE visible
01 Mar 8.2 04:07:11 10° W 04:13:02 44° WNW 04:13:02 44° WNW visible
02 Mar 7.4 01:37:05 10° WSW 01:46:19 80° SSE 01:51:27 32° ENE visible
02 Mar 7.8 03:41:59 10° W 03:49:29 60° WNW 03:49:29 60° WNW visible
02 Mar 9.5 05:47:00 10° WNW 05:47:32 12° WNW 05:47:32 12° WNW visible
03 Mar 7.4 01:11:58 10° WSW 01:21:10 77° SSE 01:27:51 22° ENE visible
03 Mar 7.5 03:16:47 10° W 03:25:53 74° NNW 03:25:53 74° NNW visible
03 Mar 9.2 05:21:49 10° WNW 05:23:55 19° WNW 05:23:55 19° WNW visible
04 Mar 7.5 00:46:52 10° SW 00:56:00 73° SSE 01:04:12 15° ENE visible
04 Mar 7.4 02:51:35 10° W 03:00:56 75° N 03:02:13 67° NE visible
04 Mar 8.8 04:56:39 10° WNW 05:00:15 27° WNW 05:00:15 27° WNW visible
05 Mar 7.5 00:21:47 10° SW 00:30:53 70° SSE 00:40:14 10° ENE visible
05 Mar 7.5 02:26:23 10° W 02:35:42 76° N 02:38:32 51° ENE visible
05 Mar 8.4 04:31:28 10° WNW 04:36:33 38° WNW 04:36:33 38° WNW visible
06 Mar 7.5 02:01:11 10° W 02:10:29 77° N 02:14:48 38° ENE visible
06 Mar 8.0 04:06:18 10° WNW 04:12:49 51° WNW 04:12:49 51° WNW visible
07 Mar 7.5 01:36:00 10° W 01:45:16 78° N 01:51:01 28° ENE visible
07 Mar 7.6 03:41:08 10° WNW 03:49:03 67° WNW 03:49:03 67° WNW visible
07 Mar 9.4 05:45:56 10° WNW 05:47:04 14° WNW 05:47:04 14° WNW visible
08 Mar 7.5 01:10:49 10° W 01:20:04 80° NNW 01:27:15 20° ENE visible
08 Mar 7.4 03:15:57 10° WNW 03:25:16 80° N 03:25:16 80° N visible
08 Mar 9.1 05:20:45 10° WNW 05:23:17 21° WNW 05:23:17 21° WNW visible
09 Mar 7.5 00:45:37 10° WSW 00:54:52 81° NNW 01:03:27 14° ENE visible
09 Mar 7.4 02:50:46 10° WNW 03:00:07 79° N 03:01:28 68° ENE visible
09 Mar 8.8 04:55:35 10° WNW 04:59:29 28° WNW 04:59:29 28° WNW visible
10 Mar 7.6 00:20:26 10° WSW 00:29:40 83° NNW 00:39:10 10° ENE visible
10 Mar 7.4 02:25:35 10° WNW 02:34:54 77° N 02:37:39 52° E visible
10 Mar 8.4 04:30:24 10° WNW 04:35:41 38° W 04:35:41 38° W visible
